Location: Zagreb
(45.8000°N, 16.0000°E)
Time: 18:33:25
(UTC+02:00)

BlueWalker 3 - Visible Passes

Search period start: 10 October 2024 00:00
Search period end: 20 October 2024 00:00
Orbit: 473 x 485 km, 53.2° (Epoch: 09 October)

Date Brightness Start Highest point End Pass type
(mag) Time Alt. Az. Time Alt. Az. Time Alt. Az.
10 Oct 2.9 04:46:27 42° NE 04:46:27 42° NE 04:49:02 10° NE visible
10 Oct 3.2 06:20:39 11° WNW 06:23:46 27° N 06:27:00 10° NE visible
11 Oct 4.3 04:19:20 21° NE 04:19:20 21° NE 04:20:42 10° ENE visible
11 Oct 3.2 05:53:31 19° WNW 05:55:23 28° N 05:58:38 10° NE visible
12 Oct 5.2 03:52:09 11° ENE 03:52:09 11° ENE 03:52:19 10° ENE visible
12 Oct 3.0 05:26:20 28° NNW 05:26:57 29° NNW 05:30:14 10° NE visible
13 Oct 3.3 04:59:05 29° N 04:59:05 29° N 05:01:49 10° NE visible
13 Oct 3.4 06:34:02 10° NW 06:37:13 26° N 06:40:24 10° ENE visible
14 Oct 4.2 04:31:48 20° NNE 04:31:48 20° NNE 04:33:22 10° NE visible
14 Oct 3.4 06:05:59 12° NW 06:08:43 26° N 06:11:53 10° ENE visible
15 Oct 5.1 04:04:30 12° NE 04:04:30 12° NE 04:04:53 10° NE visible
15 Oct 3.5 05:38:40 19° NNW 05:40:11 25° N 05:43:20 10° ENE visible
16 Oct 3.4 05:11:20 25° N 05:11:37 25° N 05:14:45 10° ENE visible
17 Oct 4.0 04:44:00 22° NNE 04:44:00 22° NNE 04:46:09 10° ENE visible
17 Oct 2.7 06:18:11 11° NW 06:21:38 44° NNE 06:25:11 10° E visible
18 Oct 4.8 04:16:40 15° NE 04:16:40 15° NE 04:17:31 10° ENE visible
18 Oct 2.8 05:50:51 20° NW 05:53:01 41° NNE 05:56:33 10° E visible
19 Oct 2.9 05:23:32 33° NNW 05:24:23 38° NNE 05:27:52 10° E visible
